EN

Hourly Weather Ladomirovka

Today, 4 August, Wednesday

Time Temperature Precipitation Wind Pressure Humidity
00:00 +19°C° 1 mm 3 mps 744 mmHg 82%
01:00 +19°C° 0.1 mm 3 mps 744 mmHg 84%
02:00 +18°C° 0.1 mm 3 mps 745 mmHg 85%
03:00 +18°C° 0.1 mm 2 mps 745 mmHg 87%
04:00 +17°C° 0 mm 2 mps 745 mmHg 86%
05:00 +17°C° 0 mm 2 mps 745 mmHg 85%
06:00 +17°C° 0 mm 2 mps 746 mmHg 84%
07:00 +19°C° 0 mm 3 mps 746 mmHg 76%
08:00 +21°C° 0 mm 3 mps 746 mmHg 67%
09:00 +24°C° 0 mm 3 mps 746 mmHg 59%
10:00 +25°C° 0 mm 4 mps 746 mmHg 51%
11:00 +27°C° 0 mm 4 mps 746 mmHg 44%
12:00 +28°C° 0 mm 4 mps 747 mmHg 36%
13:00 +29°C° 0 mm 4 mps 746 mmHg 33%
14:00 +29°C° 0 mm 4 mps 746 mmHg 30%
15:00 +30°C° 0 mm 4 mps 746 mmHg 28%
16:00 +30°C° 0 mm 4 mps 746 mmHg 30%
17:00 +29°C° 0 mm 4 mps 746 mmHg 32%
18:00 +29°C° 0 mm 4 mps 746 mmHg 34%
19:00 +27°C° 0 mm 3 mps 746 mmHg 39%
20:00 +25°C° 0 mm 3 mps 747 mmHg 43%
21:00 +22°C° 0 mm 3 mps 747 mmHg 48%
22:00 +21°C° 0 mm 3 mps 747 mmHg 51%
23:00 +20°C° 0 mm 2 mps 747 mmHg 54%

Tomorrow, 5 August, Thursday

Time Temperature Precipitation Wind Pressure Humidity
00:00 +19°C° 0 mm 2 mps 748 mmHg 57%
01:00 +18°C° 0 mm 2 mps 748 mmHg 58%
02:00 +18°C° 0 mm 2 mps 748 mmHg 59%
03:00 +17°C° 0 mm 2 mps 748 mmHg 60%
04:00 +18°C° 0 mm 2 mps 748 mmHg 59%
05:00 +19°C° 0 mm 1 mps 748 mmHg 59%
06:00 +19°C° 0 mm 1 mps 748 mmHg 59%
07:00 +21°C° 0 mm 1 mps 748 mmHg 53%
08:00 +23°C° 0 mm 1 mps 748 mmHg 47%
09:00 +25°C° 0 mm 1 mps 748 mmHg 40%
10:00 +26°C° 0 mm 1 mps 748 mmHg 37%
11:00 +28°C° 0 mm 1 mps 748 mmHg 34%
12:00 +29°C° 0 mm 1 mps 748 mmHg 31%
13:00 +29°C° 0 mm 1 mps 747 mmHg 29%
14:00 +30°C° 0 mm 1 mps 747 mmHg 28%
15:00 +30°C° 0 mm 1 mps 747 mmHg 27%
16:00 +30°C° 0 mm 1 mps 747 mmHg 30%
17:00 +29°C° 0 mm 1 mps 746 mmHg 32%
18:00 +29°C° 0 mm 1 mps 746 mmHg 35%
19:00 +27°C° 0 mm 2 mps 746 mmHg 37%
20:00 +25°C° 0 mm 2 mps 746 mmHg 38%
21:00 +24°C° 0 mm 2 mps 746 mmHg 40%
22:00 +23°C° 0 mm 2 mps 745 mmHg 41%
23:00 +22°C° 0 mm 3 mps 745 mmHg 42%

Day after tomorrow, 6 August, Friday

Time Temperature Precipitation Wind Pressure Humidity
00:00 +21°C° 0 mm 3 mps 745 mmHg 42%
01:00 +21°C° 0 mm 3 mps 745 mmHg 43%
02:00 +20°C° 0 mm 3 mps 745 mmHg 44%
03:00 +20°C° 0 mm 2 mps 745 mmHg 45%
04:00 +20°C° 0 mm 2 mps 745 mmHg 46%
05:00 +20°C° 0 mm 3 mps 744 mmHg 48%
06:00 +20°C° 0 mm 3 mps 744 mmHg 50%
07:00 +22°C° 0 mm 3 mps 744 mmHg 45%
08:00 +26°C° 0 mm 4 mps 744 mmHg 40%
09:00 +28°C° 0 mm 5 mps 744 mmHg 35%
10:00 +30°C° 0 mm 5 mps 744 mmHg 32%
11:00 +33°C° 0 mm 5 mps 744 mmHg 29%
12:00 +34°C° 0 mm 6 mps 744 mmHg 26%
13:00 +35°C° 0 mm 5 mps 743 mmHg 25%
14:00 +36°C° 0 mm 5 mps 743 mmHg 25%
15:00 +36°C° 0 mm 5 mps 743 mmHg 25%
16:00 +36°C° 0 mm 4 mps 742 mmHg 26%
17:00 +35°C° 0 mm 4 mps 742 mmHg 28%
18:00 +35°C° 0 mm 3 mps 742 mmHg 30%
19:00 +33°C° 0 mm 3 mps 742 mmHg 32%
20:00 +29°C° 0 mm 3 mps 742 mmHg 34%
21:00 +27°C° 0 mm 4 mps 742 mmHg 36%
22:00 +27°C° 0 mm 4 mps 742 mmHg 35%
23:00 +26°C° 0 mm 4 mps 742 mmHg 34%

7 August, Saturday

Time Temperature Precipitation Wind Pressure Humidity
00:00 +26°C° 0 mm 4 mps 742 mmHg 32%
01:00 +25°C° 0 mm 4 mps 742 mmHg 32%
02:00 +25°C° 0 mm 5 mps 741 mmHg 33%
03:00 +25°C° 0 mm 5 mps 741 mmHg 33%
04:00 +23°C° 0 mm 4 mps 742 mmHg 35%
05:00 +24°C° 0 mm 3 mps 742 mmHg 38%
06:00 +22°C° 0 mm 3 mps 742 mmHg 40%
07:00 +25°C° 0 mm 3 mps 742 mmHg 36%
08:00 +27°C° 0 mm 4 mps 742 mmHg 32%
09:00 +30°C° 0 mm 4 mps 742 mmHg 28%
10:00 +32°C° 0 mm 5 mps 742 mmHg 26%
11:00 +34°C° 0 mm 5 mps 742 mmHg 24%
12:00 +36°C° 0 mm 6 mps 741 mmHg 22%
13:00 +36°C° 0 mm 6 mps 741 mmHg 22%
14:00 +38°C° 0 mm 6 mps 741 mmHg 21%
15:00 +39°C° 0 mm 6 mps 740 mmHg 21%
16:00 +37°C° 0 mm 5 mps 740 mmHg 23%
17:00 +36°C° 0 mm 5 mps 740 mmHg 25%
18:00 +35°C° 0 mm 4 mps 740 mmHg 28%
19:00 +33°C° 0 mm 3 mps 740 mmHg 29%
20:00 +31°C° 0 mm 3 mps 740 mmHg 30%
21:00 +29°C° 0 mm 3 mps 740 mmHg 31%
22:00 +29°C° 0 mm 3 mps 741 mmHg 34%
23:00 +28°C° 0 mm 4 mps 741 mmHg 37%

8 August, Sunday

Time Temperature Precipitation Wind Pressure Humidity
00:00 +28°C° 0 mm 5 mps 741 mmHg 40%
01:00 +28°C° 0 mm 5 mps 741 mmHg 39%
02:00 +27°C° 0 mm 5 mps 740 mmHg 39%
03:00 +27°C° 0 mm 5 mps 740 mmHg 38%
04:00 +26°C° 0 mm 4 mps 739 mmHg 39%
05:00 +26°C° 0 mm 4 mps 739 mmHg 39%
06:00 +25°C° 0 mm 3 mps 739 mmHg 39%
07:00 +26°C° 0 mm 3 mps 739 mmHg 38%
08:00 +28°C° 0 mm 4 mps 740 mmHg 36%
09:00 +29°C° 0 mm 4 mps 740 mmHg 34%
10:00 +32°C° 0 mm 4 mps 740 mmHg 32%
11:00 +33°C° 0 mm 5 mps 740 mmHg 30%
12:00 +34°C° 0 mm 5 mps 741 mmHg 29%
13:00 +35°C° 0 mm 5 mps 741 mmHg 28%
14:00 +35°C° 0 mm 5 mps 741 mmHg 28%
15:00 +36°C° 0 mm 5 mps 741 mmHg 28%
16:00 +35°C° 0 mm 5 mps 741 mmHg 31%
17:00 +34°C° 0 mm 5 mps 742 mmHg 34%
18:00 +32°C° 0 mm 5 mps 742 mmHg 38%
19:00 +30°C° 0 mm 4 mps 742 mmHg 41%
20:00 +28°C° 0 mm 3 mps 743 mmHg 44%
21:00 +27°C° 0 mm 2 mps 743 mmHg 47%
22:00 +26°C° 0 mm 3 mps 743 mmHg 51%
23:00 +25°C° 0 mm 4 mps 743 mmHg 55%

9 August, Monday

Time Temperature Precipitation Wind Pressure Humidity
00:00 +23°C° 0 mm 4 mps 744 mmHg 59%
01:00 +23°C° 0 mm 4 mps 744 mmHg 65%
02:00 +22°C° 0 mm 4 mps 744 mmHg 72%
03:00 +21°C° 0 mm 4 mps 744 mmHg 78%
04:00 +20°C° 0 mm 4 mps 745 mmHg 82%
05:00 +19°C° 0 mm 4 mps 745 mmHg 86%
06:00 +19°C° 0 mm 3 mps 745 mmHg 90%
07:00 +20°C° 0 mm 4 mps 745 mmHg 80%
08:00 +22°C° 0 mm 5 mps 745 mmHg 70%
09:00 +25°C° 0 mm 5 mps 745 mmHg 61%
10:00 +26°C° 0 mm 5 mps 745 mmHg 52%
11:00 +28°C° 0 mm 5 mps 745 mmHg 43%
12:00 +29°C° 0 mm 5 mps 745 mmHg 34%
13:00 +30°C° 0 mm 5 mps 745 mmHg 31%
14:00 +32°C° 0 mm 5 mps 745 mmHg 28%
15:00 +33°C° 0 mm 5 mps 745 mmHg 24%
16:00 +32°C° 0 mm 5 mps 745 mmHg 27%
17:00 +32°C° 0 mm 5 mps 745 mmHg 29%
18:00 +30°C° 0 mm 5 mps 745 mmHg 32%
19:00 +28°C° 0 mm 4 mps 745 mmHg 37%
20:00 +26°C° 0 mm 4 mps 745 mmHg 42%
21:00 +24°C° 0 mm 3 mps 745 mmHg 47%
22:00 +22°C° 0 mm 3 mps 745 mmHg 52%
23:00 +21°C° 0 mm 3 mps 745 mmHg 58%
Show more